Temperature
10 10 11 10 10 10 10 9 9 9 9 8 8 8 8 8 7 7 7 7 7 7 6 6 6 6 6 6 6 6 6 6 6 5 5 5 5 5 5 5 5 5 5
9 9 9 9 9 9 8 8 8 7 7 7 7 7 7 7 6 6 6 6 6 6 5 5 5 5 5 5 5 5 5 5 5 5 5 5 5 5 5 5 5 5 5
8 8 8 8 7 7 7 7 7 7 7 6 6 6 6 6 6 5 5 5 5 5 4 4 4 4 4 4 4 4 4 4 4 4 4 4 4 4 4 5 5 5 5
7 7 7 7 6 6 6 6 6 6 6 6 6 6 5 5 5 5 5 4 4 4 4 4 4 4 4 4 4 4 4 4 4 4 4 4 4 4 4 4 5 5 5
7 6 6 6 5 5 5 5 5 5 5 5 5 5 5 5 5 4 4 4 4 4 3 3 3 3 3 3 3 3 3 4 4 4 4 4 4 4 4 4 4 5 5
6 5 5 5 5 5 5 5 5 5 5 5 5 5 5 5 4 4 4 4 3 3 3 3 3 3 3 3 3 3 3 3 4 4 4 4 4 4 4 4 4 4 4
5 5 5 5 5 5 5 5 4 4 4 4 4 4 4 4 4 4 4 3 3 3 3 3 3 3 3 3 3 3 3 3 3 4 4 4 4 4 4 4 4 4 4
5 5 5 5 5 5 4 4 4 4 4 4 4 4 4 4 4 4 3 3 3 3 3 3 3 3 3 3 3 3 4 4 4 4 4 4 4 4 4 4 4 4 5
5 5 5 5 5 5 4 4 4 4 4 4 4 4 4 3 3 3 3 3 3 3 3 3 3 3 3 3 4 4 4 4 4 4 4 4 5 5 5 5 5 5 5
5 5 5 5 5 5 5 4 4 4 4 4 4 4 3 3 3 3 3 3 3 3 3 3 3 4 4 4 4 4 4 4 4 5 5 5 5 5 5 5 5 5 4
5 5 5 5 5 5 5 5 5 4 4 4 4 3 3 3 3 3 3 3 3 3 4 4 4 4 4 4 4 4 4 4 4 4 5 5 5 5 5 5 5 5 5
5 5 5 5 5 5 5 5 5 4 4 4 4 3 3 3 3 3 3 3 3 4 4 4 4 4 4 4 4 4 4 4 5 5 5 5 5 5 5 5 5 5 5
5 5 5 5 5 5 5 5 4 4 4 4 3 3 3 3 3 3 3 3 4 4 4 4 4 4 4 4 4 4 4 5 5 5 5 5 5 5 5 5 5 5 5
5 5 5 5 5 5 5 4 4 4 4 4 3 3 3 3 3 3 3 4 4 4 4 4 4 4 4 4 5 5 5 5 5 5 5 5 5 6 6 6 5 5 5
5 5 5 5 5 5 5 4 4 4 4 4 4 3 3 3 4 4 4 4 4 4 4 4 4 4 5 5 5 5 5 5 5 5 5 5 6 6 6 6 6 5 5
5 5 5 5 5 5 5 4 4 4 4 4 4 3 4 4 4 4 4 4 4 4 4 4 4 4 4 4 5 5 5 5 5 5 5 6 6 6 6 6 6 6 5
6 6 6 5 5 5 5 4 4 4 4 4 3 3 4 4 4 4 4 4 4 4 4 4 4 4 4 4 4 5 5 5 5 5 5 6 6 6 6 6 6 6 6
6 6 6 6 5 5 5 4 4 4 4 4 4 4 4 4 4 4 4 4 4 4 4 4 4 4 4 4 4 4 4 5 5 5 5 6 6 6 6 6 6 6 6
6 6 6 6 5 5 5 5 4 4 4 4 4 4 4 4 4 4 4 4 4 4 4 4 4 4 4 4 4 4 4 4 5 5 5 6 6 6 6 6 6 6 6
6 6 6 6 5 5 5 5 4 4 4 4 4 4 4 4 4 4 4 4 4 4 4 4 4 3 4 4 4 4 4 4 5 5 5 6 6 6 6 6 6 6 6
6 6 6 6 5 5 5 5 4 4 4 4 4 4 4 4 4 4 3 3 3 3 3 3 3 3 3 3 4 4 4 4 5 5 5 6 6 6 6 6 6 6 6
6 6 6 6 5 5 5 5 4 4 4 4 4 4 4 4 3 3 3 3 3 3 3 3 3 3 3 3 3 4 4 4 5 5 5 5 6 6 6 6 6 6 6
7 6 6 6 5 5 5 5 4 4 4 4 4 4 4 4 3 3 3 3 3 3 3 3 3 3 3 3 3 4 4 4 4 5 5 5 5 5 6 6 6 6 6
7 7 6 6 6 5 5 5 4 4 4 4 4 4 4 3 3 3 3 3 3 3 3 3 3 3 3 3 3 4 4 4 4 4 5 5 5 5 5 5 5 5 6
7 7 6 6 6 5 5 5 4 4 4 4 4 4 4 3 3 3 3 3 3 3 3 2 3 3 3 3 3 4 4 4 4 4 4 5 5 5 5 5 5 5 5
7 7 7 6 6 5 5 5 5 4 4 4 4 4 4 3 3 3 3 3 3 3 2 2 2 3 3 3 3 3 4 4 4 4 4 4 4 5 5 5 5 5 5
Wind_Speed
14 14 15 14 14 14 13 13 12 11 11 11 10 10 10 10 9 8 8 8 8 8 7 7 7 6 6 5 5 5 5 3 2 1 1 2 2 2 3 5 7 8 10
13 14 15 14 13 13 13 11 10 11 10 10 10 10 10 9 8 8 8 7 7 7 6 6 5 5 6 5 4 5 4 3 2 1 2 2 2 2 3 3 6 7 9
12 13 13 12 12 12 11 10 9 9 9 10 10 10 9 9 8 8 7 7 6 5 4 4 4 4 5 4 4 4 3 3 2 1 2 2 2 3 3 3 4 5 9
11 12 11 10 10 9 9 9 8 8 9 8 8 8 7 7 8 7 7 7 6 6 4 4 3 2 2 3 3 4 3 4 3 2 2 3 3 3 2 3 4 4 5
10 10 9 8 8 8 8 7 7 7 7 6 7 7 6 6 7 7 6 6 6 6 6 4 2 3 2 2 2 2 2 2 3 2 2 3 3 3 3 2 3 5 5
9 8 7 7 7 6 6 5 5 5 5 6 6 6 6 6 9 11 7 6 6 5 5 5 3 4 6 7 7 6 4 2 2 2 2 3 4 4 3 3 2 3 4
7 7 6 6 5 4 4 5 4 3 3 4 4 5 5 6 10 11 11 5 5 5 4 3 3 3 5 5 7 9 8 8 4 3 4 5 4 4 3 4 3 3 5
6 5 5 5 4 4 4 3 2 2 2 2 2 2 3 5 10 11 11 7 6 6 5 3 2 3 3 4 5 6 7 6 6 3 5 7 8 7 6 4 4 4 6
6 5 4 5 5 4 3 1 1 1 1 1 2 2 2 4 7 10 9 6 6 7 6 4 2 2 4 5 5 6 7 7 8 10 11 12 14 14 9 3 3 2 4
6 5 4 4 4 3 2 1 0 1 1 1 2 2 2 2 6 9 9 4 5 5 6 5 5 5 8 7 4 4 7 7 8 10 11 12 10 10 7 6 5 3 3
5 5 3 3 3 2 2 2 2 3 3 3 3 2 2 2 6 9 9 3 3 4 5 5 6 11 12 11 6 5 8 8 7 7 7 7 6 5 5 4 5 5 4
5 4 3 2 1 2 3 4 4 5 5 4 3 3 3 4 6 8 11 9 5 2 4 5 7 13 13 10 6 6 9 7 4 5 5 5 5 5 5 5 5 6 7
4 3 2 2 2 3 4 5 5 5 4 3 3 3 2 3 5 9 10 10 10 4 5 10 11 11 9 6 8 9 6 3 3 4 5 4 4 5 5 5 5 3 2
4 2 2 2 3 4 4 4 4 4 4 4 3 2 2 3 4 5 5 6 8 7 6 9 11 10 7 7 7 6 4 3 3 3 4 5 5 4 3 3 2 3 3
3 2 2 2 3 4 4 4 4 2 2 3 2 1 1 2 5 7 6 6 6 6 6 5 5 5 6 6 6 6 5 6 5 5 4 5 5 5 4 3 2 2 1
2 1 1 2 3 4 4 3 5 2 3 4 3 2 2 4 8 10 10 10 10 6 3 3 4 4 5 5 6 6 5 6 6 5 5 5 5 5 4 3 2 1 1
3 2 2 3 4 4 4 4 1 2 3 3 3 3 4 7 8 9 9 10 9 6 4 4 4 5 5 5 5 5 5 5 5 5 6 6 6 5 4 3 3 2 2
3 3 3 3 4 4 4 4 3 2 1 3 4 6 7 8 8 8 8 8 6 6 4 4 4 5 5 5 5 5 5 6 6 6 7 7 7 5 4 4 3 2 2
3 2 2 3 3 4 4 4 3 3 1 1 2 4 6 6 8 8 6 4 3 4 4 4 4 4 4 5 5 5 6 6 6 6 6 7 7 5 5 4 3 3 2
3 4 4 4 4 4 4 4 3 3 2 1 0 2 3 4 4 5 4 3 3 3 4 4 5 5 5 5 6 6 6 6 7 6 7 7 7 6 5 5 4 3 3
3 2 5 5 4 4 4 4 4 3 3 2 2 2 1 1 1 2 2 2 3 3 3 4 4 5 5 5 5 6 7 6 6 6 7 7 7 6 6 5 4 3 3
3 3 3 4 4 4 4 4 4 4 4 3 1 1 1 2 1 1 2 2 3 3 3 3 3 4 5 4 4 5 6 6 7 7 7 7 7 6 6 5 4 4 4
4 4 4 4 4 5 4 3 3 3 3 2 2 1 1 1 1 1 2 2 3 5 6 7 6 6 9 10 9 7 5 6 7 7 7 7 7 6 5 4 5 4 4
4 4 5 5 4 4 4 3 3 3 3 3 2 1 1 1 1 1 2 2 4 6 8 8 8 8 9 11 12 12 12 13 13 11 9 6 6 5 5 4 4 5 4
3 4 5 5 5 5 5 4 3 3 3 3 2 1 1 2 1 1 2 3 5 6 8 8 9 10 11 12 14 16 17 17 15 12 9 5 4 5 5 5 4 4 5
4 5 6 5 5 5 5 5 4 4 3 2 2 2 2 2 2 1 2 3 4 6 6 7 9 11 12 14 15 17 18 19 18 16 12 7 5 5 5 4 6 5 5
Wind_Direction
70 74 77 77 77 78 79 78 78 75 72 72 70 69 64 60 56 59 58 55 58 52 48 51 46 38 36 29 31 37 38 50 76 347 337 339 357 341 327 308 293 288 291
73 76 76 76 77 77 77 75 75 75 72 70 68 65 62 56 50 51 52 47 49 47 42 43 37 41 35 29 33 35 33 41 70 12 329 332 327 316 310 305 309 306 303
78 79 78 77 77 77 77 75 74 74 71 68 66 64 59 52 47 43 46 42 39 37 35 35 25 38 34 25 30 25 15 22 37 26 324 316 309 315 324 312 316 316 318
83 82 81 79 79 79 78 75 73 73 72 67 64 63 59 53 46 39 39 37 29 22 20 23 28 49 48 26 24 11 9 12 12 8 334 320 311 311 339 328 326 319 311
89 87 85 83 82 81 77 73 71 69 71 68 67 61 54 51 39 36 30 31 24 13 5 4 7 37 39 16 2 342 352 350 350 347 329 327 317 326 320 305 308 310 307
94 92 90 88 86 82 80 77 73 70 68 70 70 67 54 44 33 33 33 26 15 9 358 354 2 33 23 14 359 348 336 304 294 290 290 293 287 280 277 286 302 336 316
100 100 99 97 92 88 92 86 81 80 81 81 80 74 55 27 29 26 28 31 16 3 353 352 6 27 26 6 353 353 345 330 293 230 249 265 264 260 263 286 279 263 261
106 103 102 99 95 92 89 87 87 99 107 114 116 100 64 28 28 27 27 30 24 15 12 21 32 354 358 358 346 341 329 319 307 272 243 256 259 255 237 236 249 273 275
113 112 110 106 102 98 92 82 80 102 116 167 160 135 87 18 22 28 32 23 18 7 4 11 21 348 328 349 349 335 325 317 321 321 306 290 286 280 259 222 256 271 303
121 120 116 113 112 112 107 78 19 105 123 127 116 130 123 30 11 22 27 24 12 355 346 341 331 318 314 321 312 309 310 306 320 327 327 328 322 316 292 212 212 217 254
131 123 118 116 124 116 70 39 50 65 74 77 83 71 67 35 15 17 18 19 350 336 330 323 315 319 317 313 297 256 263 279 300 306 312 318 323 322 308 273 219 200 210
124 124 124 119 104 90 66 50 53 66 73 67 68 53 26 18 23 15 15 14 8 330 312 309 309 317 322 323 314 288 291 298 300 315 325 325 325 319 311 305 286 237 226
122 125 122 96 62 76 79 72 62 64 74 66 72 70 30 6 360 6 4 358 358 342 308 311 319 333 343 345 344 346 344 341 336 333 326 309 294 291 301 320 341 350 328
134 150 145 109 88 77 77 85 85 76 77 72 73 69 21 348 343 343 339 336 343 343 334 332 341 354 6 359 356 358 353 338 324 311 307 302 309 325 333 339 351 360 11
138 147 142 128 120 102 82 75 96 94 138 128 123 127 73 339 309 315 320 323 324 319 329 346 2 0 4 3 356 350 348 352 350 337 333 333 334 339 334 333 356 21 24
153 171 179 160 139 129 117 75 51 92 88 103 147 178 252 268 301 322 331 334 335 337 10 9 356 356 357 355 351 346 348 348 343 343 347 347 342 339 335 338 358 12 328
174 185 179 158 155 154 149 143 123 350 338 319 301 300 294 304 321 333 346 359 15 34 36 7 358 354 351 351 353 352 348 343 346 355 355 350 346 345 344 340 345 347 320
168 174 158 157 162 164 167 170 165 158 322 318 313 307 314 325 338 352 9 26 24 21 16 3 357 356 360 3 4 2 356 357 360 358 355 353 352 348 346 340 334 320 300
158 159 141 142 147 147 150 154 156 162 181 280 328 333 335 351 9 19 37 51 31 7 4 8 10 11 12 11 10 8 5 359 353 352 352 349 348 349 345 336 330 333 341
168 171 153 141 138 135 136 139 145 151 153 154 319 316 345 25 26 13 22 31 32 15 11 18 17 21 18 16 12 8 2 357 353 352 345 343 343 344 340 335 335 337 329
165 159 146 136 144 148 147 151 155 155 158 172 216 250 162 70 39 23 18 15 18 17 21 30 30 23 19 17 13 7 1 349 343 341 340 338 338 338 334 331 333 341 343
159 154 151 153 153 152 157 157 153 155 164 176 222 290 34 69 53 38 22 5 7 22 45 59 49 32 25 17 9 2 351 342 339 339 337 333 332 334 338 341 343 348 356
157 157 160 161 156 149 140 137 144 152 156 158 157 151 108 80 69 52 11 0 23 45 62 66 57 37 31 26 19 5 339 323 313 310 315 320 325 330 335 343 349 353 358
152 159 160 160 152 146 144 143 144 147 142 139 141 146 139 115 97 41 6 16 60 75 78 68 55 40 28 18 10 1 350 337 327 311 297 294 313 327 340 355 357 0 3
156 158 158 159 157 154 148 143 139 136 139 147 154 149 121 111 101 41 22 57 86 94 87 67 49 36 25 15 8 1 358 357 355 348 332 314 327 342 350 2 4 5 13
160 161 157 153 153 155 153 152 157 158 158 158 148 137 130 127 118 72 46 72 98 105 95 65 46 34 26 17 11 7 7 6 7 10 10 5 1 360 356 1 11 16 17
Height
1518 1518 1519 1520 1522 1523 1525 1526 1527 1528 1530 1530 1531 1531 1532 1532 1532 1531 1531 1531 1530 1529 1529 1528 1528 1527 1526 1526 1525 1525 1525 1525 1525 1525 1525 1525 1525 1525 1525 1525 1525 1524 1523
1523 1523 1523 1524 1526 1527 1528 1530 1531 1532 1533 1534 1534 1534 1534 1534 1534 1534 1533 1533 1532 1531 1530 1530 1530 1529 1528 1527 1526 1526 1526 1525 1525 1525 1524 1524 1524 1523 1523 1522 1522 1521 1520
1527 1528 1528 1530 1531 1532 1533 1535 1536 1536 1537 1537 1537 1537 1537 1537 1537 1536 1536 1535 1534 1533 1532 1532 1531 1530 1529 1528 1528 1527 1526 1526 1525 1525 1524 1523 1523 1522 1521 1521 1520 1518 1517
1533 1533 1534 1535 1536 1537 1538 1539 1540 1541 1541 1541 1541 1541 1541 1540 1539 1538 1538 1537 1536 1535 1534 1533 1532 1532 1531 1530 1529 1528 1527 1526 1525 1524 1523 1523 1522 1521 1520 1518 1517 1516 1514
1538 1539 1539 1540 1541 1542 1543 1544 1544 1545 1545 1545 1545 1544 1544 1543 1541 1540 1539 1538 1537 1536 1535 1534 1534 1533 1532 1530 1529 1528 1526 1525 1524 1523 1523 1522 1521 1519 1518 1517 1515 1513 1512
1543 1544 1545 1545 1546 1547 1548 1548 1549 1549 1549 1549 1548 1547 1546 1544 1543 1542 1541 1539 1538 1537 1536 1535 1534 1533 1532 1531 1529 1528 1526 1525 1524 1523 1522 1521 1519 1518 1517 1515 1514 1511 1509
1547 1548 1550 1550 1551 1552 1552 1553 1553 1553 1553 1552 1551 1550 1548 1546 1545 1543 1542 1540 1539 1538 1537 1536 1535 1533 1532 1531 1529 1527 1526 1524 1524 1522 1521 1520 1518 1517 1515 1514 1512 1510 1508
1552 1553 1554 1555 1555 1556 1556 1556 1556 1556 1555 1554 1553 1551 1550 1548 1546 1544 1543 1541 1540 1539 1538 1536 1535 1534 1532 1530 1529 1527 1526 1524 1523 1521 1520 1518 1517 1516 1514 1512 1510 1508 1506
1556 1557 1558 1558 1558 1558 1559 1559 1558 1557 1556 1555 1554 1553 1551 1549 1547 1546 1544 1542 1541 1539 1538 1537 1535 1534 1532 1530 1529 1527 1526 1524 1522 1521 1519 1517 1516 1514 1513 1511 1509 1506 1504
1559 1559 1560 1561 1561 1561 1560 1560 1559 1558 1557 1556 1555 1554 1552 1550 1548 1546 1545 1543 1541 1540 1538 1537 1535 1534 1532 1530 1528 1527 1525 1523 1521 1519 1518 1516 1515 1513 1512 1509 1507 1505 1503
1561 1562 1562 1563 1562 1562 1562 1561 1560 1559 1558 1557 1555 1554 1552 1551 1549 1547 1545 1544 1542 1541 1539 1537 1536 1534 1532 1530 1528 1526 1525 1523 1521 1519 1517 1516 1514 1512 1510 1508 1506 1504 1502
1562 1563 1564 1564 1564 1563 1563 1561 1560 1559 1558 1557 1556 1554 1553 1551 1550 1548 1546 1545 1543 1541 1539 1538 1536 1534 1532 1530 1529 1527 1525 1523 1521 1520 1518 1516 1514 1512 1510 1508 1505 1503 1501
1564 1564 1565 1565 1564 1564 1563 1562 1561 1559 1558 1557 1556 1554 1553 1552 1551 1549 1547 1546 1544 1542 1540 1539 1537 1535 1533 1531 1530 1528 1526 1524 1522 1520 1518 1516 1514 1512 1510 1508 1506 1503 1501
1565 1565 1565 1565 1565 1564 1563 1562 1561 1560 1558 1557 1556 1555 1554 1553 1552 1551 1549 1547 1546 1544 1542 1540 1538 1536 1534 1533 1531 1529 1527 1525 1523 1521 1519 1517 1515 1513 1511 1508 1506 1504 1502
1565 1566 1566 1566 1565 1565 1564 1563 1562 1560 1559 1558 1557 1556 1555 1555 1554 1552 1551 1549 1547 1546 1544 1542 1540 1538 1536 1534 1533 1531 1529 1527 1525 1523 1520 1518 1516 1513 1511 1509 1507 1505 1503
1566 1566 1566 1565 1565 1565 1564 1564 1563 1562 1560 1559 1558 1558 1557 1557 1555 1554 1553 1551 1549 1548 1546 1544 1542 1540 1538 1536 1534 1532 1530 1528 1526 1524 1522 1519 1517 1515 1512 1510 1508 1506 1504
1566 1566 1566 1565 1565 1565 1565 1564 1564 1563 1562 1561 1560 1560 1559 1558 1557 1556 1555 1553 1551 1550 1548 1546 1544 1542 1540 1538 1536 1534 1531 1529 1527 1525 1523 1521 1518 1516 1513 1511 1509 1507 1505
1565 1566 1566 1565 1565 1565 1565 1565 1564 1564 1563 1563 1562 1561 1561 1560 1559 1558 1556 1555 1553 1551 1549 1547 1545 1543 1541 1539 1537 1535 1532 1530 1528 1526 1524 1522 1519 1517 1515 1512 1510 1508 1506
1565 1565 1565 1565 1565 1565 1565 1565 1565 1565 1564 1564 1563 1563 1562 1561 1560 1559 1557 1556 1554 1552 1550 1548 1546 1544 1542 1540 1538 1535 1533 1531 1529 1527 1525 1523 1521 1518 1516 1513 1511 1509 1507
1565 1565 1565 1565 1565 1566 1566 1566 1565 1565 1565 1565 1564 1564 1563 1562 1561 1560 1558 1556 1554 1552 1551 1549 1547 1545 1543 1540 1538 1536 1533 1532 1530 1528 1526 1524 1522 1519 1517 1515 1512 1510 1508
1564 1564 1565 1565 1565 1566 1566 1566 1566 1566 1566 1565 1565 1565 1564 1563 1562 1560 1559 1557 1555 1553 1551 1550 1548 1545 1543 1541 1538 1536 1534 1532 1531 1529 1527 1525 1523 1520 1518 1516 1514 1511 1509
1564 1564 1564 1565 1565 1565 1566 1566 1566 1566 1566 1566 1566 1565 1565 1564 1562 1561 1559 1557 1555 1554 1552 1550 1548 1546 1543 1541 1538 1536 1534 1533 1531 1529 1528 1526 1524 1522 1519 1517 1515 1513 1510
1563 1563 1564 1564 1565 1565 1565 1566 1566 1566 1566 1566 1566 1565 1565 1564 1562 1561 1559 1558 1556 1554 1553 1551 1548 1546 1543 1541 1538 1536 1535 1533 1532 1530 1528 1526 1524 1522 1520 1518 1516 1514 1512
1562 1563 1563 1564 1564 1565 1565 1566 1566 1566 1566 1566 1566 1566 1565 1564 1563 1561 1560 1558 1556 1555 1553 1551 1548 1546 1543 1541 1538 1536 1535 1533 1532 1530 1529 1527 1525 1523 1521 1519 1517 1515 1513
1562 1562 1563 1564 1564 1565 1565 1566 1566 1566 1566 1566 1566 1565 1565 1564 1563 1561 1560 1558 1557 1555 1553 1551 1548 1545 1543 1540 1538 1536 1534 1533 1532 1531 1529 1527 1526 1524 1522 1520 1518 1516 1514
1562 1562 1563 1563 1564 1564 1565 1565 1566 1566 1566 1566 1566 1565 1565 1564 1563 1561 1560 1558 1557 1555 1553 1551 1548 1545 1542 1539 1537 1535 1533 1532 1532 1530 1529 1528 1526 1524 1522 1520 1518 1516 1514